Regional Weather Roundup
Issued by NWS

Home | Current Version | Previous Version | Text Only | Print | Product List | Glossary Off
Versions: 1 2 3 4 5 6 7 8 9 10 11 12 13 14 15 16 17 18 19 20 21 22 23 24 25 26 27 28 29 30 31 32 33 34 35 36 37 38 39 40 41 42 43 44 45 46 47 48 49 50

000
ASUS45 KCYS 312210
RWRWY

WYOMING REGIONAL WEATHER ROUNDUP
NATIONAL WEATHER SERVICE CHEYENNE WY
400 PM MDT MON AUG 31 2015

NOTE:  "FAIR" INDICATES FEW OR NO CLOUDS BELOW 12,000 FEET
WITH NO SIGNIFICANT WEATHER AND/OR OBSTRUCTIONS TO VISIBILITY.

WYZ001-312300-
YELLOWSTONE NATIONAL PARK

CITY           SKY/WX    TMP DP  RH WIND       PRES   REMARKS
LK YELLOWSTONE   N/A     63  25  23 W10G22    30.23F
W YELLOWSTONE  NOT AVBL

$$
WYZ002>013-054>058-071-098>099-312300-
NORTHERN WYOMING

CITY           SKY/WX    TMP DP  RH WIND       PRES   REMARKS
JACKSON        SUNNY     72  25  17 SW17      30.13F
CODY           FAIR      81  28  15 SW7       29.96F
GREYBULL       FAIR      86  25  11 VRB5      29.88F
WORLAND        FAIR      89  27  10 N7        29.87F
SHERIDAN       FAIR      82  42  24 E6        29.91F
BUFFALO        FAIR      84  41  21 E10G23    29.94F
GILLETTE       FAIR      84  39  20 S8        29.92F
HULETT         FAIR      79  50  36 NE7       29.97F
NEWCASTLE      FAIR      82  43  24 SE15      29.97F

$$
WYZ014>020-022>026-101>103-312300-
CENTRAL WYOMING

CITY           SKY/WX    TMP DP  RH WIND       PRES   REMARKS
BIG PINEY      FAIR      79  23  12 W21G28    30.16F
PINEDALE       FAIR      75  19  12 W13G25    30.16F
DUBOIS         FAIR      73  14  10 NW25G32   30.12F
LANDER         FAIR      85  22  10 W12       29.99F
RIVERTON       FAIR      85  18   8 N7G18     29.99F
CASPER         FAIR      88  25  10 W21G29    29.99F
DOUGLAS        FAIR      84  39  20 S7G16     29.99F

$$
WYZ021-027>030-104>119-312300-
SOUTHERN WYOMING

CITY           SKY/WX    TMP DP  RH WIND       PRES   REMARKS
EVANSTON       FAIR      80  29  15 W22G28    30.18F
KEMMERER       FAIR     N/A N/A N/A W18G26    30.19F
FORT BRIDGER   MOCLDY    79  30  17 W12G22    30.20S
ROCK SPRINGS   FAIR      73  42  32 S20       30.17F
DIXON          TSTM      54  45  71 SE13      30.22S
RAWLINS        LGT RAIN  70  35  27 W28G43    30.20R
SARATOGA       FAIR      73  41  31 SW12G20   30.19S
LARAMIE        LGT RAIN  62  45  53 VRB5G29   30.22F
CHEYENNE       LGT RAIN  83  41  22 S8        30.12F
TORRINGTON     FAIR      87  43  21 SE8       29.97F
PINE BLUFFS    LGT RAIN  81  45  28 E6        30.05S

$$


USA.gov is the U.S. government's official web portal to all federal, state and local government web resources and services.